Wind_Speed
5 5 4 4 4 4 4 3 2 2 2 2 2 3 3 4 5 5 5 5 5 5 5 4 4 5 6 6 6 6 6 6 6 6 6 6 6 7 8 8 9 9 9 9
5 5 6 5 5 4 4 2 2 2 2 2 2 3 4 5 5 5 5 5 6 6 6 5 6 6 6 6 7 7 6 7 7 7 7 7 8 8 8 8 9 9 10 10
7 8 7 6 5 4 4 3 4 3 2 2 3 4 5 5 5 6 6 5 6 6 6 6 6 6 6 7 8 8 8 7 8 8 8 9 9 9 9 9 9 10 10 11
9 9 7 6 5 5 5 5 4 4 3 3 3 4 5 5 6 6 6 6 7 8 7 6 6 7 7 7 8 9 8 8 9 9 10 10 10 10 10 10 11 12 12 13
10 10 8 7 7 6 6 6 5 5 4 3 4 3 6 6 7 7 7 8 8 8 8 7 7 7 7 8 8 9 8 9 10 10 11 11 11 11 12 12 13 13 13 13
12 11 10 8 8 7 6 5 5 5 4 5 6 4 6 7 8 8 8 8 8 9 9 9 8 8 8 8 9 9 9 10 10 11 11 11 12 13 13 13 13 13 13 13
12 12 11 10 10 9 7 5 4 4 4 6 8 6 7 9 9 10 10 9 9 9 9 9 9 9 9 10 10 10 11 11 11 11 11 12 13 14 14 14 14 13 14 14
13 13 13 12 11 11 8 6 6 6 6 8 9 8 9 9 10 10 10 10 9 10 10 11 11 11 10 11 11 12 12 12 12 12 13 14 15 15 15 15 15 15 16 15
14 14 15 14 13 12 11 10 9 8 9 8 10 11 11 11 11 11 10 10 10 11 11 12 12 12 12 12 12 13 13 13 14 14 14 15 16 16 16 16 17 17 17 17
15 15 16 16 15 14 13 12 11 10 10 10 11 12 12 12 12 12 11 11 11 12 13 14 13 13 13 14 14 14 14 14 15 15 16 17 17 17 17 17 18 18 19 19
16 16 16 17 16 15 15 15 14 13 13 11 11 14 14 13 13 13 13 13 12 13 14 14 14 14 15 15 16 15 15 15 16 17 17 18 18 17 18 18 19 20 20 20
18 16 17 17 16 16 17 16 15 14 15 13 13 15 16 15 15 15 14 14 14 14 15 15 15 16 16 17 18 18 18 17 18 18 19 19 19 19 19 20 21 21 21 21
20 19 17 16 16 17 17 16 16 15 15 15 14 15 17 17 17 16 16 16 15 15 15 16 17 18 18 19 19 20 20 19 20 21 21 21 21 20 20 21 21 21 22 22
21 21 20 18 18 18 18 18 17 17 17 16 17 17 18 18 18 18 18 18 17 18 17 18 19 20 20 21 21 21 22 21 21 22 22 22 21 21 21 22 22 22 22 22
21 21 21 20 20 20 20 20 19 19 19 19 18 19 19 19 19 19 19 20 20 21 21 20 20 21 21 22 22 22 22 23 23 23 23 23 22 22 22 22 23 22 23 23
22 22 21 21 21 21 21 22 21 21 21 20 20 22 22 21 21 21 21 21 22 22 22 21 22 22 22 23 23 23 24 24 24 23 24 24 23 23 22 23 23 23 23 23
22 22 22 21 22 22 23 23 23 23 22 21 22 23 23 23 23 23 23 24 24 24 24 23 23 23 23 23 23 24 25 25 25 25 24 24 24 24 24 24 25 25 25 24
22 21 22 21 22 23 23 24 23 23 23 23 23 24 24 24 25 25 25 25 26 26 25 25 24 24 25 25 25 25 26 26 26 25 26 25 25 25 25 25 26 26 26 27
24 23 22 22 23 24 25 25 24 24 26 25 25 25 25 25 25 26 26 26 26 26 26 26 26 26 25 25 26 26 26 26 26 26 26 26 26 26 26 27 27 27 28 28
24 24 24 24 23 24 25 25 25 25 27 26 26 26 25 24 25 27 26 26 26 26 26 26 26 27 27 27 27 27 27 26 27 27 27 27 27 28 28 29 29 29 29 29
25 25 25 25 25 26 26 26 26 26 27 26 27 27 26 25 25 26 25 25 26 26 26 26 27 27 28 28 28 27 28 28 28 28 28 28 28 29 29 30 30 30 30 30
26 25 26 26 26 27 27 27 27 27 27 27 27 27 27 26 26 25 26 26 27 27 27 27 28 28 28 28 28 28 28 29 29 29 29 29 29 30 30 31 31 30 30 30
27 27 27 27 28 27 27 28 27 27 28 28 27 27 27 27 27 27 27 27 27 27 27 28 28 28 29 29 29 30 30 30 30 30 30 30 30 31 32 32 31 31 31 31
28 28 28 29 29 28 29 29 29 29 28 28 28 27 27 27 28 28 27 28 28 28 28 28 28 28 28 29 30 30 30 30 30 30 30 31 31 31 32 33 31 31 32 32
28 28 28 29 29 30 30 30 30 30 29 29 29 29 28 28 29 29 29 29 29 29 28 28 28 28 29 29 30 31 30 30 30 30 31 31 31 31 32 32 31 32 32 31
28 28 28 29 29 30 30 30 31 31 31 31 31 30 30 30 30 30 29 29 29 29 29 29 30 30 30 30 30 31 30 30 31 31 31 31 32 32 32 32 32 31 31 31
Wind_Direction
216 214 217 223 225 223 226 236 274 299 320 342 5 4 360 355 353 348 346 334 323 317 322 324 322 323 325 320 320 319 313 311 312 311 308 308 314 316 317 314 310 302 297 296
220 225 226 230 232 229 228 234 266 270 279 312 336 348 344 346 345 343 349 346 341 329 315 315 315 317 320 316 315 310 303 302 302 304 304 302 307 311 314 312 307 301 300 301
219 227 233 237 236 232 225 237 259 264 276 297 317 340 335 338 334 334 336 338 335 335 325 311 308 312 314 316 314 310 309 305 300 299 301 302 305 310 312 311 305 302 301 301
225 230 232 236 238 241 247 245 253 265 278 288 304 320 319 322 321 324 328 327 325 330 327 317 313 314 311 318 317 313 311 308 306 303 302 299 301 306 310 310 311 308 305 305
227 230 232 237 242 241 250 259 263 266 271 278 295 299 300 307 310 312 318 320 319 323 326 319 316 319 317 318 321 320 317 313 309 306 304 297 296 301 307 308 309 310 309 307
230 231 235 241 249 246 251 268 277 273 277 274 278 278 288 299 303 304 308 311 315 317 316 315 316 316 316 317 317 318 318 318 313 311 310 309 306 306 306 307 308 307 306 308
236 237 239 242 250 256 257 271 302 302 292 277 278 274 275 289 298 304 304 299 304 309 306 307 309 309 309 310 311 313 314 314 314 313 312 310 310 310 310 309 308 308 307 307
233 238 242 243 248 255 255 250 251 264 272 281 289 281 282 291 299 307 308 301 301 302 303 303 306 306 305 307 307 307 307 308 310 312 311 309 308 307 307 308 307 308 307 305
232 237 244 244 249 253 253 250 252 263 272 279 281 284 288 294 299 304 305 302 299 300 301 301 306 306 304 305 307 307 306 305 307 308 307 307 306 305 304 305 305 305 304 302
236 239 245 247 251 252 250 251 256 261 266 276 284 287 290 294 298 301 302 302 300 298 302 303 305 306 305 303 304 305 304 304 304 306 305 305 305 304 304 304 304 304 304 302
240 242 248 250 250 250 251 252 253 258 260 268 276 279 285 293 295 298 299 298 298 299 301 304 304 305 305 304 302 301 300 301 302 303 303 303 301 300 301 301 302 303 302 300
241 242 247 250 251 247 249 250 252 256 264 266 270 276 281 288 292 295 296 296 299 301 301 301 301 302 303 303 301 299 298 299 300 299 298 298 297 297 298 298 299 299 299 298
242 242 247 254 258 251 248 251 254 257 262 268 271 276 280 285 288 289 291 293 295 298 300 300 299 298 298 299 298 299 300 300 300 300 298 296 295 294 295 296 296 296 296 296
246 245 243 244 247 252 254 255 256 257 261 266 270 272 276 282 286 287 288 290 293 295 295 297 297 298 297 296 295 296 298 300 300 300 298 298 295 294 294 294 296 296 296 295
248 249 248 249 250 251 254 257 258 259 260 264 268 274 278 280 283 286 290 292 293 294 293 293 296 297 297 296 296 295 295 297 297 299 298 298 297 295 296 297 298 298 297 294
250 252 252 253 255 255 255 256 258 261 263 265 269 274 279 280 281 284 287 289 289 291 293 292 292 293 294 295 295 294 294 294 295 296 297 297 297 295 295 296 297 299 299 296
251 253 253 255 257 258 257 258 260 261 264 267 271 274 278 281 283 285 286 288 288 289 291 292 289 290 291 293 293 293 292 293 294 294 293 294 296 295 296 297 298 300 299 299
248 251 254 254 257 257 261 262 263 266 268 270 271 273 276 279 282 283 284 285 286 286 288 289 288 287 288 289 289 289 291 293 293 291 290 292 295 295 297 296 296 296 298 299
248 250 253 255 258 262 262 263 266 268 268 270 272 274 276 279 282 282 284 284 284 286 287 287 287 286 286 286 287 287 288 291 291 291 290 291 292 293 296 298 298 298 298 299
250 251 253 255 256 260 265 266 267 269 270 271 273 275 279 280 282 284 286 287 286 288 288 288 285 285 285 285 285 285 286 288 290 291 291 291 291 292 294 295 297 297 298 298
251 253 254 256 257 261 264 266 267 268 272 274 276 278 280 281 281 284 286 286 287 287 288 288 287 285 285 285 286 285 286 287 288 290 291 291 291 292 293 294 295 296 296 297
251 254 255 257 258 261 264 266 267 271 274 275 277 278 280 282 283 283 284 285 287 288 288 288 286 286 285 286 287 286 286 286 287 288 289 291 292 293 294 294 294 294 295 295
251 253 256 258 259 261 264 267 270 272 275 277 277 277 279 281 282 283 284 285 287 287 288 287 287 285 285 285 286 286 286 285 287 287 288 290 291 291 294 293 292 292 292 294
254 254 256 258 260 261 264 268 270 272 275 276 276 277 278 280 281 282 284 286 286 287 287 286 286 286 286 286 287 287 286 286 288 288 288 288 290 291 292 292 291 291 292 293
254 256 258 259 261 263 264 267 270 272 274 276 278 279 278 281 281 282 283 285 286 287 287 287 286 288 288 288 288 288 287 288 288 287 287 288 289 291 291 291 290 291 291 293
254 257 258 260 262 263 265 267 269 272 274 276 278 278 279 281 282 282 282 284 285 287 287 287 288 287 288 288 288 288 289 289 288 288 288 289 290 290 290 289 290 291 292 293
Height
5921 5923 5924 5924 5924 5925 5924 5924 5924 5924 5923 5922 5921 5921 5920 5919 5918 5917 5916 5914 5913 5912 5911 5910 5909 5908 5906 5905 5904 5903 5901 5900 5899 5898 5897 5895 5894 5893 5891 5890 5888 5887 5886 5885
5921 5922 5922 5922 5923 5923 5923 5924 5924 5923 5922 5922 5921 5921 5920 5919 5917 5916 5915 5914 5913 5912 5910 5909 5908 5907 5906 5905 5903 5902 5900 5899 5898 5896 5895 5894 5893 5891 5890 5888 5887 5885 5884 5883
5919 5921 5920 5921 5922 5922 5922 5923 5923 5923 5922 5921 5921 5921 5920 5918 5917 5916 5915 5914 5912 5911 5910 5908 5907 5906 5905 5903 5902 5900 5899 5897 5896 5895 5894 5892 5890 5889 5888 5886 5885 5884 5882 5881
5917 5918 5919 5920 5920 5921 5922 5921 5921 5921 5921 5921 5921 5922 5920 5918 5916 5915 5914 5912 5911 5910 5908 5907 5906 5904 5903 5902 5900 5898 5897 5895 5894 5893 5892 5890 5889 5888 5886 5884 5883 5882 5880 5879
5916 5917 5917 5918 5919 5919 5920 5920 5920 5920 5920 5921 5920 5921 5920 5917 5915 5914 5913 5911 5910 5909 5907 5906 5904 5903 5902 5900 5899 5897 5895 5894 5892 5891 5889 5888 5886 5885 5884 5882 5881 5879 5877 5875
5914 5915 5916 5917 5917 5918 5918 5919 5919 5919 5919 5920 5919 5920 5919 5916 5914 5913 5911 5909 5908 5907 5905 5904 5903 5902 5900 5898 5897 5895 5893 5892 5890 5889 5887 5886 5884 5883 5881 5879 5878 5876 5874 5872
5912 5913 5913 5914 5915 5916 5917 5918 5920 5920 5920 5920 5917 5917 5917 5914 5912 5911 5909 5908 5906 5905 5904 5902 5901 5900 5898 5896 5895 5893 5891 5890 5888 5886 5884 5883 5881 5880 5878 5876 5875 5873 5871 5870
5910 5912 5911 5912 5913 5914 5914 5916 5919 5920 5920 5918 5915 5915 5914 5911 5910 5909 5907 5906 5904 5903 5902 5900 5899 5897 5896 5894 5892 5891 5889 5887 5886 5884 5882 5880 5879 5877 5875 5873 5871 5869 5868 5866
5908 5909 5909 5909 5910 5911 5912 5913 5914 5916 5915 5915 5915 5912 5911 5909 5908 5906 5905 5904 5902 5901 5899 5898 5896 5894 5893 5891 5890 5888 5886 5885 5883 5881 5879 5877 5875 5873 5871 5869 5868 5866 5864 5862
5903 5905 5905 5906 5907 5908 5909 5910 5911 5912 5912 5913 5912 5910 5909 5906 5905 5904 5902 5901 5900 5898 5897 5895 5893 5891 5890 5888 5886 5885 5883 5882 5880 5878 5876 5874 5872 5870 5868 5866 5863 5861 5859 5857
5899 5901 5902 5902 5903 5904 5905 5906 5907 5908 5909 5910 5910 5910 5905 5903 5902 5901 5899 5898 5897 5895 5894 5892 5890 5888 5887 5885 5883 5881 5880 5878 5876 5874 5872 5870 5868 5865 5863 5861 5859 5857 5855 5852
5895 5897 5898 5899 5899 5899 5900 5901 5903 5905 5904 5904 5905 5906 5901 5899 5898 5897 5896 5895 5893 5892 5890 5888 5887 5885 5883 5881 5879 5877 5875 5874 5872 5870 5868 5865 5863 5861 5859 5857 5854 5852 5850 5847
5890 5892 5894 5895 5897 5896 5896 5897 5898 5899 5900 5900 5901 5902 5897 5895 5894 5893 5892 5891 5889 5888 5886 5884 5883 5881 5879 5877 5875 5873 5871 5869 5867 5865 5863 5860 5858 5856 5854 5851 5849 5847 5844 5842
5885 5887 5890 5892 5892 5892 5891 5892 5893 5894 5895 5895 5895 5894 5892 5890 5890 5889 5887 5886 5885 5883 5882 5880 5878 5876 5874 5872 5870 5868 5866 5864 5862 5860 5857 5855 5853 5850 5848 5846 5843 5841 5838 5836
5880 5881 5883 5884 5886 5886 5887 5887 5888 5888 5889 5890 5889 5888 5887 5886 5885 5884 5882 5881 5880 5878 5876 5875 5873 5871 5869 5867 5865 5863 5861 5859 5857 5854 5852 5850 5847 5845 5843 5840 5838 5835 5832 5830
5874 5876 5877 5879 5880 5880 5881 5882 5882 5883 5883 5883 5883 5882 5881 5880 5879 5878 5877 5876 5874 5873 5871 5869 5868 5866 5864 5861 5859 5857 5855 5853 5851 5849 5847 5844 5842 5839 5837 5835 5832 5829 5827 5824
5868 5870 5872 5873 5874 5874 5875 5876 5876 5877 5877 5877 5877 5877 5875 5874 5873 5872 5871 5870 5868 5867 5865 5863 5861 5859 5858 5856 5854 5851 5849 5847 5845 5843 5841 5838 5836 5834 5831 5829 5826 5823 5820 5818
5863 5864 5866 5867 5868 5868 5871 5870 5870 5870 5870 5871 5870 5870 5869 5868 5867 5865 5864 5863 5862 5860 5858 5857 5855 5853 5851 5849 5847 5845 5843 5841 5839 5836 5834 5832 5830 5827 5825 5822 5820 5817 5814 5812
5857 5858 5860 5861 5862 5862 5863 5863 5864 5864 5864 5864 5863 5863 5862 5861 5860 5858 5857 5856 5854 5853 5851 5850 5848 5846 5844 5842 5840 5838 5836 5834 5832 5830 5828 5826 5823 5821 5818 5816 5813 5810 5807 5805
5850 5852 5854 5854 5856 5857 5858 5857 5857 5858 5856 5857 5856 5856 5855 5854 5853 5852 5850 5848 5847 5845 5844 5842 5840 5838 5837 5835 5833 5831 5829 5827 5825 5823 5821 5818 5816 5814 5811 5809 5806 5803 5800 5797
5844 5845 5846 5847 5848 5849 5850 5849 5850 5852 5851 5850 5849 5848 5847 5847 5846 5844 5843 5841 5839 5838 5837 5835 5833 5831 5829 5827 5825 5824 5822 5820 5818 5816 5813 5811 5809 5807 5804 5801 5798 5795 5793 5790
5836 5838 5839 5840 5842 5844 5842 5842 5843 5843 5842 5841 5841 5840 5839 5839 5837 5836 5835 5833 5832 5830 5829 5827 5825 5823 5821 5819 5818 5816 5814 5812 5810 5808 5806 5803 5801 5798 5796 5793 5790 5787 5785 5782
5828 5831 5832 5833 5835 5834 5834 5834 5835 5835 5834 5834 5833 5832 5832 5831 5830 5829 5827 5826 5824 5822 5821 5819 5817 5815 5813 5811 5810 5808 5806 5804 5802 5799 5797 5795 5793 5790 5787 5784 5782 5779 5776 5774
5820 5822 5823 5824 5825 5826 5826 5826 5826 5826 5826 5826 5825 5824 5824 5823 5822 5821 5819 5818 5816 5815 5813 5811 5809 5807 5805 5803 5801 5799 5797 5795 5793 5790 5788 5786 5784 5781 5778 5775 5773 5770 5768 5765
5812 5814 5815 5816 5817 5818 5818 5818 5818 5818 5818 5817 5817 5816 5816 5815 5814 5813 5811 5810 5808 5806 5804 5802 5801 5799 5797 5794 5792 5790 5788 5786 5784 5782 5779 5777 5775 5772 5769 5766 5764 5761 5759 5756
5804 5806 5807 5808 5809 5809 5810 5810 5809 5809 5809 5809 5808 5808 5807 5806 5805 5803 5802 5801 5799 5797 5796 5794 5792 5790 5788 5786 5783 5781 5779 5777 5775 5773 5770 5768 5766 5763 5760 5758 5755 5752 5750 5748